Location: Unspecified
(50.7693°N, 0.0000°E)
Time: 01:58:50
(UTC+00:00)

Transit 2A Rocket - Pass Details

Date: 26 October 2019
Orbit: 594 x 909 km, 66.7° (Epoch: 17 November)

Event Time Altitude Azimuth Distance (km) Brightness Sun altitude
Exits shadow 04:26:05 59° 271° (W) 773 4.6 -21.8°
Maximum altitude 04:26:39 65° 311° (NW) 731 4.6 -21.7°
Drops below altitude 10° 04:31:10 10° 33° (NNE) 2,018 7.7 -21.0°
Sets 04:33:24 0° 37° (NE) 2,899 8.6 -20.7°
